PRIVATE WETTERSTATION BILLIGHEIM-ALLFELD                       ZURCK
Wetterdaten: Sonntag, 18.09.2016
Datum Zeit Temp. A. Temp. A. min Temp. A. max Feuchte A. Luftdruck Regen Wind Richtung Richtung Sonnenschein ET Solar Taupunkt Windchill Windben Empfang
18.09.2016 00:00 14,7 C 14,6 C 14,7 C 90 % 1011,5 hPa 0,0 l/m 1,6 km/h (1 Bft) NW 315 0 min 0,000 mm 0 W/m 13,1 C 14,7 C 9,7 km/h (2 Bft) 98 %
18.09.2016 00:10 14,7 C 14,7 C 14,7 C 90 % 1011,4 hPa 0,0 l/m 0,0 km/h (0 Bft) NW 315 0 min 0,000 mm 0 W/m 13,1 C 14,7 C 9,7 km/h (2 Bft) 97 %
18.09.2016 00:20 14,7 C 14,6 C 14,7 C 90 % 1011,3 hPa 0,0 l/m 0,0 km/h (0 Bft) N-NW 337 0 min 0,000 mm 0 W/m 13,1 C 14,7 C 1,6 km/h (1 Bft) 97 %
18.09.2016 00:30 14,6 C 14,6 C 14,7 C 90 % 1011,3 hPa 0,0 l/m 0,0 km/h (0 Bft) N-NW 337 0 min 0,000 mm 0 W/m 13,0 C 14,6 C 4,8 km/h (1 Bft) 98 %
18.09.2016 00:40 14,6 C 14,6 C 14,6 C 90 % 1011,3 hPa 0,0 l/m 0,0 km/h (0 Bft) N 0 0 min 0,000 mm 0 W/m 13,0 C 14,6 C 0,0 km/h (0 Bft) 97 %
18.09.2016 00:50 14,6 C 14,6 C 14,7 C 90 % 1011,3 hPa 0,2 l/m 0,0 km/h (0 Bft) N-NW 337 0 min 0,000 mm 0 W/m 13,0 C 14,6 C 4,8 km/h (1 Bft) 98 %
18.09.2016 01:00 14,7 C 14,6 C 14,7 C 90 % 1011,2 hPa 0,2 l/m 0,0 km/h (0 Bft) N-NW 337 0 min 0,000 mm 0 W/m 13,1 C 14,7 C 1,6 km/h (1 Bft) 97 %
18.09.2016 01:10 14,7 C 14,7 C 14,7 C 90 % 1011,1 hPa 0,2 l/m 0,0 km/h (0 Bft) NW 315 0 min 0,000 mm 0 W/m 13,1 C 14,7 C 4,8 km/h (1 Bft) 96 %
18.09.2016 01:20 14,7 C 14,7 C 14,7 C 90 % 1011,1 hPa 0,2 l/m 0,0 km/h (0 Bft) N-NW 337 0 min 0,000 mm 0 W/m 13,1 C 14,7 C 4,8 km/h (1 Bft) 91 %
18.09.2016 01:30 14,7 C 14,7 C 14,7 C 90 % 1011,0 hPa 0,2 l/m 0,0 km/h (0 Bft) N 0 0 min 0,000 mm 0 W/m 13,1 C 14,7 C 0,0 km/h (0 Bft) 97 %
18.09.2016 01:40 14,7 C 14,7 C 14,7 C 90 % 1011,0 hPa 0,2 l/m 0,0 km/h (0 Bft) N-NW 337 0 min 0,000 mm 0 W/m 13,1 C 14,7 C 1,6 km/h (1 Bft) 98 %
18.09.2016 01:50 14,7 C 14,7 C 14,7 C 90 % 1010,9 hPa 0,2 l/m 0,0 km/h (0 Bft) N-NW 337 0 min 0,000 mm 0 W/m 13,1 C 14,7 C 1,6 km/h (1 Bft) 97 %
18.09.2016 02:00 14,7 C 14,7 C 14,7 C 91 % 1010,9 hPa 0,2 l/m 0,0 km/h (0 Bft) N-NW 337 0 min 0,000 mm 0 W/m 13,2 C 14,7 C 1,6 km/h (1 Bft) 98 %
18.09.2016 02:10 14,7 C 14,7 C 14,7 C 91 % 1010,9 hPa 0,2 l/m 0,0 km/h (0 Bft) N-NW 337 0 min 0,000 mm 0 W/m 13,2 C 14,7 C 1,6 km/h (1 Bft) 98 %
18.09.2016 02:20 14,7 C 14,7 C 14,7 C 91 % 1010,8 hPa 0,2 l/m 0,0 km/h (0 Bft) N 0 0 min 0,000 mm 0 W/m 13,2 C 14,7 C 0,0 km/h (0 Bft) 97 %
18.09.2016 02:30 14,7 C 14,7 C 14,7 C 91 % 1010,8 hPa 0,4 l/m 0,0 km/h (0 Bft) N-NW 337 0 min 0,000 mm 0 W/m 13,2 C 14,7 C 1,6 km/h (1 Bft) 98 %
18.09.2016 02:40 14,6 C 14,6 C 14,7 C 91 % 1010,7 hPa 0,4 l/m 0,0 km/h (0 Bft) N 0 0 min 0,000 mm 0 W/m 13,1 C 14,6 C 0,0 km/h (0 Bft) 97 %
18.09.2016 02:50 14,7 C 14,6 C 14,7 C 91 % 1010,6 hPa 0,2 l/m 0,0 km/h (0 Bft) N-NW 337 0 min 0,000 mm 0 W/m 13,2 C 14,7 C 1,6 km/h (1 Bft) 98 %
18.09.2016 03:00 14,7 C 14,7 C 14,7 C 91 % 1010,5 hPa 0,2 l/m 0,0 km/h (0 Bft) N-NW 337 0 min 0,000 mm 0 W/m 13,2 C 14,7 C 4,8 km/h (1 Bft) 97 %
18.09.2016 03:10 14,7 C 14,7 C 14,7 C 91 % 1010,4 hPa 0,4 l/m 0,0 km/h (0 Bft) N-NW 337 0 min 0,000 mm 0 W/m 13,2 C 14,7 C 1,6 km/h (1 Bft) 98 %
18.09.2016 03:20 14,6 C 14,6 C 14,7 C 91 % 1010,4 hPa 0,4 l/m 1,6 km/h (1 Bft) N-NW 337 0 min 0,000 mm 0 W/m 13,1 C 14,6 C 4,8 km/h (1 Bft) 98 %
18.09.2016 03:30 14,6 C 14,6 C 14,7 C 91 % 1010,3 hPa 0,2 l/m 0,0 km/h (0 Bft) N-NW 337 0 min 0,000 mm 0 W/m 13,1 C 14,6 C 4,8 km/h (1 Bft) 97 %
18.09.2016 03:40 14,6 C 14,6 C 14,7 C 91 % 1010,3 hPa 0,2 l/m 0,0 km/h (0 Bft) N-NW 337 0 min 0,000 mm 0 W/m 13,1 C 14,6 C 4,8 km/h (1 Bft) 98 %
18.09.2016 03:50 14,7 C 14,6 C 14,7 C 91 % 1010,3 hPa 0,4 l/m 0,0 km/h (0 Bft) N-NW 337 0 min 0,000 mm 0 W/m 13,2 C 14,7 C 4,8 km/h (1 Bft) 97 %
18.09.2016 04:00 14,6 C 14,6 C 14,6 C 91 % 1010,3 hPa 0,4 l/m 1,6 km/h (1 Bft) N-NW 337 0 min 0,000 mm 0 W/m 13,1 C 14,6 C 6,4 km/h (2 Bft) 98 %
18.09.2016 04:10 14,6 C 14,6 C 14,6 C 91 % 1010,2 hPa 0,4 l/m 0,0 km/h (0 Bft) N-NW 337 0 min 0,000 mm 0 W/m 13,1 C 14,6 C 4,8 km/h (1 Bft) 97 %
18.09.2016 04:20 14,6 C 14,6 C 14,6 C 91 % 1010,2 hPa 0,2 l/m 0,0 km/h (0 Bft) N 0 0 min 0,000 mm 0 W/m 13,1 C 14,6 C 0,0 km/h (0 Bft) 98 %
18.09.2016 04:30 14,6 C 14,6 C 14,7 C 91 % 1010,1 hPa 0,2 l/m 0,0 km/h (0 Bft) N 0 0 min 0,000 mm 0 W/m 13,1 C 14,6 C 0,0 km/h (0 Bft) 97 %
18.09.2016 04:40 14,6 C 14,6 C 14,7 C 91 % 1010,1 hPa 0,4 l/m 0,0 km/h (0 Bft) N-NW 337 0 min 0,000 mm 0 W/m 13,1 C 14,6 C 1,6 km/h (1 Bft) 97 %
18.09.2016 04:50 14,6 C 14,6 C 14,7 C 91 % 1010,1 hPa 0,2 l/m 0,0 km/h (0 Bft) N 0 0 min 0,000 mm 0 W/m 13,1 C 14,6 C 0,0 km/h (0 Bft) 98 %
18.09.2016 05:00 14,6 C 14,6 C 14,6 C 91 % 1010,1 hPa 0,2 l/m 0,0 km/h (0 Bft) N 0 0 min 0,000 mm 0 W/m 13,1 C 14,6 C 0,0 km/h (0 Bft) 96 %
18.09.2016 05:10 14,6 C 14,6 C 14,6 C 91 % 1010,1 hPa 0,4 l/m 0,0 km/h (0 Bft) N 0 0 min 0,000 mm 0 W/m 13,1 C 14,6 C 0,0 km/h (0 Bft) 98 %
18.09.2016 05:20 14,6 C 14,6 C 14,6 C 91 % 1010,1 hPa 0,0 l/m 0,0 km/h (0 Bft) NW 315 0 min 0,000 mm 0 W/m 13,1 C 14,6 C 1,6 km/h (1 Bft) 97 %
18.09.2016 05:30 14,6 C 14,6 C 14,6 C 91 % 1010,1 hPa 0,4 l/m 0,0 km/h (0 Bft) N-NW 337 0 min 0,000 mm 0 W/m 13,1 C 14,6 C 1,6 km/h (1 Bft) 98 %
18.09.2016 05:40 14,5 C 14,5 C 14,6 C 91 % 1010,0 hPa 0,2 l/m 0,0 km/h (0 Bft) NW 315 0 min 0,000 mm 0 W/m 13,0 C 14,5 C 1,6 km/h (1 Bft) 97 %
18.09.2016 05:50 14,5 C 14,5 C 14,5 C 91 % 1010,0 hPa 0,2 l/m 0,0 km/h (0 Bft) NW 315 0 min 0,000 mm 0 W/m 13,0 C 14,5 C 1,6 km/h (1 Bft) 97 %
18.09.2016 06:00 14,4 C 14,4 C 14,5 C 91 % 1010,0 hPa 0,4 l/m 0,0 km/h (0 Bft) N-NW 337 0 min 0,000 mm 0 W/m 12,9 C 14,4 C 1,6 km/h (1 Bft) 98 %
18.09.2016 06:10 14,4 C 14,4 C 14,4 C 91 % 1010,0 hPa 0,0 l/m 0,0 km/h (0 Bft) N 0 0 min 0,000 mm 0 W/m 12,9 C 14,4 C 0,0 km/h (0 Bft) 97 %
18.09.2016 06:20 14,4 C 14,4 C 14,4 C 91 % 1009,9 hPa 0,4 l/m 0,0 km/h (0 Bft) N 0 0 min 0,000 mm 0 W/m 12,9 C 14,4 C 0,0 km/h (0 Bft) 97 %
18.09.2016 06:30 14,4 C 14,4 C 14,4 C 91 % 1009,9 hPa 0,0 l/m 0,0 km/h (0 Bft) N 0 0 min 0,000 mm 0 W/m 12,9 C 14,4 C 0,0 km/h (0 Bft) 97 %
18.09.2016 06:40 14,4 C 14,4 C 14,4 C 91 % 1009,9 hPa 0,2 l/m 0,0 km/h (0 Bft) N-NW 337 0 min 0,000 mm 0 W/m 12,9 C 14,4 C 1,6 km/h (1 Bft) 98 %
18.09.2016 06:50 14,4 C 14,4 C 14,4 C 91 % 1010,0 hPa 0,2 l/m 0,0 km/h (0 Bft) N 0 0 min 0,000 mm 0 W/m 12,9 C 14,4 C 0,0 km/h (0 Bft) 97 %
18.09.2016 07:00 14,4 C 14,4 C 14,4 C 91 % 1010,1 hPa 0,0 l/m 0,0 km/h (0 Bft) N 0 0 min 0,000 mm 0 W/m 12,9 C 14,4 C 0,0 km/h (0 Bft) 98 %
18.09.2016 07:10 14,4 C 14,3 C 14,4 C 91 % 1010,1 hPa 0,2 l/m 0,0 km/h (0 Bft) N 0 0 min 0,000 mm 0 W/m 12,9 C 14,4 C 0,0 km/h (0 Bft) 98 %
18.09.2016 07:20 14,3 C 14,3 C 14,4 C 91 % 1010,0 hPa 0,0 l/m 0,0 km/h (0 Bft) N 0 0 min 0,000 mm 0 W/m 12,8 C 14,3 C 0,0 km/h (0 Bft) 97 %
18.09.2016 07:30 14,3 C 14,3 C 14,3 C 91 % 1010,0 hPa 0,0 l/m 0,0 km/h (0 Bft) N 0 0 min 0,000 mm 0 W/m 12,8 C 14,3 C 0,0 km/h (0 Bft) 98 %
18.09.2016 07:40 14,3 C 14,3 C 14,3 C 91 % 1010,1 hPa 0,0 l/m 0,0 km/h (0 Bft) N 360 0 min 0,000 mm 0 W/m 12,8 C 14,3 C 1,6 km/h (1 Bft) 97 %
18.09.2016 07:50 14,3 C 14,3 C 14,3 C 91 % 1010,1 hPa 0,0 l/m 0,0 km/h (0 Bft) N 0 0 min 0,000 mm 5 W/m 12,8 C 14,3 C 0,0 km/h (0 Bft) 98 %
18.09.2016 08:00 14,3 C 14,3 C 14,3 C 91 % 1010,2 hPa 0,0 l/m 0,0 km/h (0 Bft) N 360 0 min 0,000 mm 7 W/m 12,8 C 14,3 C 3,2 km/h (1 Bft) 97 %
18.09.2016 08:10 14,3 C 14,2 C 14,3 C 91 % 1010,1 hPa 0,0 l/m 0,0 km/h (0 Bft) N 360 0 min 0,000 mm 14 W/m 12,8 C 14,3 C 1,6 km/h (1 Bft) 96 %
18.09.2016 08:20 14,3 C 14,3 C 14,3 C 91 % 1010,2 hPa 0,0 l/m 0,0 km/h (0 Bft) N 0 0 min 0,000 mm 14 W/m 12,8 C 14,3 C 0,0 km/h (0 Bft) 98 %
18.09.2016 08:30 14,3 C 14,3 C 14,3 C 91 % 1010,4 hPa 0,0 l/m 0,0 km/h (0 Bft) N 0 0 min 0,000 mm 16 W/m 12,8 C 14,3 C 0,0 km/h (0 Bft) 97 %
18.09.2016 08:40 14,3 C 14,3 C 14,3 C 91 % 1010,2 hPa 0,0 l/m 0,0 km/h (0 Bft) N-NW 337 0 min 0,000 mm 18 W/m 12,8 C 14,3 C 3,2 km/h (1 Bft) 98 %
18.09.2016 08:50 14,3 C 14,3 C 14,3 C 91 % 1010,3 hPa 0,0 l/m 0,0 km/h (0 Bft) N-NW 337 0 min 0,000 mm 19 W/m 12,8 C 14,3 C 3,2 km/h (1 Bft) 97 %
18.09.2016 09:00 14,3 C 14,3 C 14,3 C 91 % 1010,4 hPa 0,0 l/m 0,0 km/h (0 Bft) N 0 0 min 0,000 mm 21 W/m 12,8 C 14,3 C 0,0 km/h (0 Bft) 98 %
18.09.2016 09:10 14,3 C 14,3 C 14,4 C 91 % 1010,4 hPa 0,0 l/m 0,0 km/h (0 Bft) N 0 0 min 0,000 mm 21 W/m 12,8 C 14,3 C 0,0 km/h (0 Bft) 98 %
18.09.2016 09:20 14,3 C 14,3 C 14,4 C 91 % 1010,4 hPa 0,2 l/m 0,0 km/h (0 Bft) NW 315 0 min 0,000 mm 23 W/m 12,8 C 14,3 C 4,8 km/h (1 Bft) 97 %
18.09.2016 09:30 14,4 C 14,3 C 14,4 C 91 % 1010,5 hPa 0,0 l/m 0,0 km/h (0 Bft) N 0 0 min 0,000 mm 37 W/m 12,9 C 14,4 C 0,0 km/h (0 Bft) 98 %
18.09.2016 09:40 14,4 C 14,4 C 14,4 C 91 % 1010,5 hPa 0,0 l/m 0,0 km/h (0 Bft) N 0 0 min 0,000 mm 62 W/m 12,9 C 14,4 C 0,0 km/h (0 Bft) 97 %
18.09.2016 09:50 14,5 C 14,4 C 14,5 C 91 % 1010,5 hPa 0,2 l/m 0,0 km/h (0 Bft) NW 315 0 min 0,000 mm 63 W/m 13,0 C 14,5 C 1,6 km/h (1 Bft) 98 %
18.09.2016 10:00 14,5 C 14,5 C 14,6 C 91 % 1010,6 hPa 0,2 l/m 0,0 km/h (0 Bft) NW 315 0 min 0,025 mm 88 W/m 13,0 C 14,5 C 1,6 km/h (1 Bft) 97 %
18.09.2016 10:10 14,6 C 14,5 C 14,6 C 91 % 1010,6 hPa 0,2 l/m 0,0 km/h (0 Bft) NW 315 0 min 0,000 mm 90 W/m 13,1 C 14,6 C 3,2 km/h (1 Bft) 97 %
18.09.2016 10:20 14,7 C 14,6 C 14,7 C 91 % 1010,7 hPa 0,2 l/m 1,6 km/h (1 Bft) NW 315 0 min 0,000 mm 95 W/m 13,2 C 14,7 C 4,8 km/h (1 Bft) 98 %
18.09.2016 10:30 14,8 C 14,7 C 14,8 C 91 % 1010,7 hPa 0,2 l/m 0,0 km/h (0 Bft) NW 315 0 min 0,000 mm 107 W/m 13,3 C 14,8 C 16,1 km/h (3 Bft) 98 %
18.09.2016 10:40 14,9 C 14,8 C 14,9 C 91 % 1010,8 hPa 0,2 l/m 1,6 km/h (1 Bft) NW 315 0 min 0,000 mm 114 W/m 13,4 C 14,9 C 16,1 km/h (3 Bft) 98 %
18.09.2016 10:50 15,0 C 14,9 C 15,0 C 91 % 1010,8 hPa 0,0 l/m 1,6 km/h (1 Bft) NW 315 0 min 0,000 mm 123 W/m 13,5 C 15,0 C 8,0 km/h (2 Bft) 97 %
18.09.2016 11:00 15,1 C 15,0 C 15,1 C 91 % 1010,9 hPa 0,4 l/m 0,0 km/h (0 Bft) NW 315 0 min 0,051 mm 132 W/m 13,6 C 15,1 C 6,4 km/h (2 Bft) 98 %
18.09.2016 11:10 15,1 C 15,1 C 15,1 C 91 % 1010,9 hPa 0,0 l/m 0,0 km/h (0 Bft) N-NW 337 0 min 0,000 mm 130 W/m 13,6 C 15,1 C 1,6 km/h (1 Bft) 87 %
18.09.2016 11:20 15,1 C 15,1 C 15,1 C 91 % 1010,8 hPa 0,2 l/m 0,0 km/h (0 Bft) N 0 10 min 0,000 mm 153 W/m 13,6 C 15,1 C 0,0 km/h (0 Bft) 98 %
18.09.2016 11:30 15,1 C 15,1 C 15,1 C 91 % 1010,9 hPa 0,2 l/m 0,0 km/h (0 Bft) N 360 10 min 0,000 mm 221 W/m 13,6 C 15,1 C 1,6 km/h (1 Bft) 98 %
18.09.2016 11:40 15,3 C 15,1 C 15,3 C 91 % 1010,8 hPa 0,2 l/m 0,0 km/h (0 Bft) N 0 10 min 0,000 mm 153 W/m 13,8 C 15,3 C 0,0 km/h (0 Bft) 98 %
18.09.2016 11:50 15,3 C 15,3 C 15,3 C 91 % 1010,8 hPa 0,2 l/m 0,0 km/h (0 Bft) N-NW 337 0 min 0,000 mm 118 W/m 13,8 C 15,3 C 6,4 km/h (2 Bft) 98 %
18.09.2016 12:00 15,1 C 15,1 C 15,3 C 91 % 1010,8 hPa 0,0 l/m 0,0 km/h (0 Bft) NW 315 0 min 0,076 mm 83 W/m 13,6 C 15,1 C 4,8 km/h (1 Bft) 97 %
18.09.2016 12:10 15,1 C 15,1 C 15,1 C 91 % 1010,9 hPa 0,2 l/m 0,0 km/h (0 Bft) N 360 0 min 0,000 mm 97 W/m 13,6 C 15,1 C 3,2 km/h (1 Bft) 98 %
18.09.2016 12:20 15,1 C 15,1 C 15,1 C 91 % 1011,0 hPa 0,2 l/m 0,0 km/h (0 Bft) N 360 0 min 0,000 mm 93 W/m 13,6 C 15,1 C 3,2 km/h (1 Bft) 97 %
18.09.2016 12:30 15,1 C 15,1 C 15,1 C 91 % 1010,9 hPa 0,0 l/m 0,0 km/h (0 Bft) N 360 0 min 0,000 mm 90 W/m 13,6 C 15,1 C 6,4 km/h (2 Bft) 98 %
18.09.2016 12:40 15,1 C 15,1 C 15,1 C 91 % 1011,0 hPa 0,2 l/m 0,0 km/h (0 Bft) N 360 0 min 0,000 mm 93 W/m 13,6 C 15,1 C 1,6 km/h (1 Bft) 98 %
18.09.2016 12:50 15,1 C 15,1 C 15,1 C 91 % 1011,1 hPa 0,0 l/m 0,0 km/h (0 Bft) N 360 0 min 0,000 mm 84 W/m 13,6 C 15,1 C 1,6 km/h (1 Bft) 98 %
18.09.2016 13:00 15,1 C 15,1 C 15,1 C 91 % 1011,1 hPa 0,0 l/m 0,0 km/h (0 Bft) N 0 0 min 0,051 mm 91 W/m 13,6 C 15,1 C 0,0 km/h (0 Bft) 98 %
18.09.2016 13:10 15,1 C 15,1 C 15,1 C 91 % 1011,1 hPa 0,2 l/m 0,0 km/h (0 Bft) N-NO 22 0 min 0,000 mm 91 W/m 13,6 C 15,1 C 1,6 km/h (1 Bft) 97 %
18.09.2016 13:20 15,1 C 15,1 C 15,1 C 91 % 1011,1 hPa 0,0 l/m 0,3 km/h (0 Bft) N-NO 14 0 min 0,000 mm 113 W/m 13,6 C 15,1 C 4,8 km/h (1 Bft) 100 %
18.09.2016 13:30 15,1 C 15,1 C 15,1 C 91 % 1011,0 hPa 0,0 l/m 0,4 km/h (0 Bft) NW 311 0 min 0,000 mm 113 W/m 13,6 C 15,1 C 4,8 km/h (1 Bft) 99 %
18.09.2016 13:40 15,1 C 15,1 C 15,1 C 91 % 1011,0 hPa 0,0 l/m 1,2 km/h (1 Bft) W-NW 287 0 min 0,000 mm 109 W/m 13,6 C 15,1 C 8,0 km/h (2 Bft) 100 %
18.09.2016 13:50 15,3 C 15,1 C 15,3 C 91 % 1011,0 hPa 0,0 l/m 0,0 km/h (0 Bft) W-NW 287 0 min 0,000 mm 90 W/m 13,8 C 15,3 C 0,0 km/h (0 Bft) 100 %
18.09.2016 14:00 15,3 C 15,3 C 15,3 C 91 % 1011,0 hPa 0,0 l/m 0,4 km/h (0 Bft) S-SW 204 0 min 0,051 mm 102 W/m 13,8 C 15,3 C 4,8 km/h (1 Bft) 100 %
18.09.2016 14:10 15,4 C 15,3 C 15,4 C 91 % 1011,0 hPa 0,0 l/m 0,0 km/h (0 Bft) S-SO 155 0 min 0,000 mm 86 W/m 13,9 C 15,4 C 3,2 km/h (1 Bft) 100 %
18.09.2016 14:20 15,3 C 15,3 C 15,4 C 91 % 1010,9 hPa 0,0 l/m 0,2 km/h (0 Bft) S-SW 202 0 min 0,000 mm 81 W/m 13,8 C 15,3 C 4,8 km/h (1 Bft) 100 %
18.09.2016 14:30 15,3 C 15,3 C 15,3 C 91 % 1010,9 hPa 0,0 l/m 0,0 km/h (0 Bft) SW 231 0 min 0,000 mm 63 W/m 13,8 C 15,3 C 1,6 km/h (1 Bft) 91 %
18.09.2016 14:40 15,1 C 15,1 C 15,3 C 91 % 1011,0 hPa 0,0 l/m 0,0 km/h (0 Bft) SW 232 0 min 0,000 mm 88 W/m 13,6 C 15,1 C 0,0 km/h (0 Bft) 99 %
18.09.2016 14:50 15,1 C 15,1 C 15,1 C 91 % 1011,1 hPa 0,0 l/m 0,1 km/h (0 Bft) W 275 0 min 0,000 mm 93 W/m 13,6 C 15,1 C 3,2 km/h (1 Bft) 99 %
18.09.2016 15:00 15,1 C 15,1 C 15,1 C 91 % 1011,0 hPa 0,0 l/m 0,0 km/h (0 Bft) W 275 0 min 0,051 mm 95 W/m 13,6 C 15,1 C 0,0 km/h (0 Bft) 100 %
18.09.2016 15:10 15,1 C 15,1 C 15,1 C 91 % 1011,1 hPa 0,0 l/m 0,0 km/h (0 Bft) W 279 0 min 0,000 mm 104 W/m 13,6 C 15,1 C 1,6 km/h (1 Bft) 99 %
18.09.2016 15:20 15,1 C 15,1 C 15,1 C 91 % 1011,1 hPa 0,0 l/m 0,0 km/h (0 Bft) W-NW 288 0 min 0,000 mm 88 W/m 13,6 C 15,1 C 1,6 km/h (1 Bft) 100 %
18.09.2016 15:30 15,2 C 15,1 C 15,2 C 91 % 1011,1 hPa 0,0 l/m 0,7 km/h (0 Bft) N-NW 328 0 min 0,000 mm 88 W/m 13,7 C 15,2 C 4,8 km/h (1 Bft) 100 %
18.09.2016 15:40 15,2 C 15,2 C 15,2 C 91 % 1011,1 hPa 0,0 l/m 0,9 km/h (0 Bft) N-NW 333 0 min 0,000 mm 53 W/m 13,7 C 15,2 C 4,8 km/h (1 Bft) 100 %
18.09.2016 15:50 15,2 C 15,1 C 15,2 C 91 % 1011,1 hPa 0,0 l/m 0,0 km/h (0 Bft) N-NW 333 0 min 0,000 mm 49 W/m 13,7 C 15,2 C 1,6 km/h (1 Bft) 100 %
18.09.2016 16:00 15,1 C 15,1 C 15,2 C 91 % 1011,1 hPa 0,0 l/m 0,5 km/h (0 Bft) N-NW 341 0 min 0,051 mm 49 W/m 13,6 C 15,1 C 4,8 km/h (1 Bft) 100 %
18.09.2016 16:10 15,1 C 15,1 C 15,1 C 91 % 1011,2 hPa 0,0 l/m 0,0 km/h (0 Bft) N-NW 339 0 min 0,000 mm 35 W/m 13,6 C 15,1 C 1,6 km/h (1 Bft) 99 %
18.09.2016 16:20 15,1 C 15,1 C 15,1 C 91 % 1011,3 hPa 0,0 l/m 0,0 km/h (0 Bft) N-NW 339 0 min 0,000 mm 56 W/m 13,6 C 15,1 C 0,0 km/h (0 Bft) 99 %
18.09.2016 16:30 15,2 C 15,1 C 15,2 C 91 % 1011,2 hPa 0,0 l/m 0,0 km/h (0 Bft) N-NW 339 0 min 0,000 mm 60 W/m 13,7 C 15,2 C 0,0 km/h (0 Bft) 100 %
18.09.2016 16:40 15,3 C 15,2 C 15,3 C 91 % 1011,2 hPa 0,0 l/m 0,0 km/h (0 Bft) N-NW 339 0 min 0,000 mm 42 W/m 13,8 C 15,3 C 0,0 km/h (0 Bft) 100 %
18.09.2016 16:50 15,3 C 15,3 C 15,3 C 91 % 1011,1 hPa 0,0 l/m 0,0 km/h (0 Bft) N-NW 339 0 min 0,000 mm 81 W/m 13,8 C 15,3 C 0,0 km/h (0 Bft) 99 %
18.09.2016 17:00 15,4 C 15,3 C 15,4 C 91 % 1011,2 hPa 0,0 l/m 0,0 km/h (0 Bft) N-NW 339 0 min 0,025 mm 76 W/m 13,9 C 15,4 C 0,0 km/h (0 Bft) 99 %
18.09.2016 17:10 15,4 C 15,4 C 15,4 C 91 % 1011,2 hPa 0,0 l/m 0,0 km/h (0 Bft) N-NW 339 0 min 0,000 mm 53 W/m 13,9 C 15,4 C 1,6 km/h (1 Bft) 98 %
18.09.2016 17:20 15,6 C 15,4 C 15,6 C 91 % 1011,2 hPa 0,0 l/m 0,0 km/h (0 Bft) N-NW 340 0 min 0,000 mm 39 W/m 14,1 C 15,6 C 1,6 km/h (1 Bft) 98 %
18.09.2016 17:30 15,6 C 15,6 C 15,6 C 91 % 1011,2 hPa 0,0 l/m 0,0 km/h (0 Bft) N-NW 340 0 min 0,000 mm 40 W/m 14,1 C 15,6 C 0,0 km/h (0 Bft) 97 %
18.09.2016 17:40 15,6 C 15,5 C 15,6 C 91 % 1011,2 hPa 0,0 l/m 0,0 km/h (0 Bft) N-NW 339 0 min 0,000 mm 25 W/m 14,1 C 15,6 C 0,0 km/h (0 Bft) 98 %
18.09.2016 17:50 15,6 C 15,5 C 15,6 C 91 % 1011,2 hPa 0,0 l/m 0,0 km/h (0 Bft) N-NW 340 0 min 0,000 mm 28 W/m 14,1 C 15,6 C 0,0 km/h (0 Bft) 97 %
18.09.2016 18:00 15,6 C 15,6 C 15,6 C 91 % 1011,4 hPa 0,0 l/m 0,0 km/h (0 Bft) N-NW 340 0 min 0,025 mm 18 W/m 14,1 C 15,6 C 0,0 km/h (0 Bft) 97 %
18.09.2016 18:10 15,5 C 15,5 C 15,6 C 91 % 1011,5 hPa 0,0 l/m 0,0 km/h (0 Bft) N-NW 340 0 min 0,000 mm 14 W/m 14,0 C 15,5 C 0,0 km/h (0 Bft) 97 %
18.09.2016 18:20 15,5 C 15,5 C 15,6 C 91 % 1011,6 hPa 0,0 l/m 0,0 km/h (0 Bft) N-NW 340 0 min 0,000 mm 18 W/m 14,0 C 15,5 C 0,0 km/h (0 Bft) 97 %
18.09.2016 18:30 15,6 C 15,5 C 15,6 C 91 % 1011,5 hPa 0,0 l/m 0,0 km/h (0 Bft) N-NW 339 0 min 0,000 mm 21 W/m 14,1 C 15,6 C 0,0 km/h (0 Bft) 97 %
18.09.2016 18:40 15,6 C 15,6 C 15,6 C 91 % 1011,6 hPa 0,0 l/m 0,0 km/h (0 Bft) N-NW 340 0 min 0,000 mm 23 W/m 14,1 C 15,6 C 0,0 km/h (0 Bft) 98 %
18.09.2016 18:50 15,6 C 15,6 C 15,6 C 91 % 1011,6 hPa 0,0 l/m 0,0 km/h (0 Bft) N-NW 340 0 min 0,000 mm 32 W/m 14,1 C 15,6 C 0,0 km/h (0 Bft) 97 %
18.09.2016 19:00 15,6 C 15,6 C 15,6 C 91 % 1011,7 hPa 0,0 l/m 0,0 km/h (0 Bft) N-NW 340 0 min 0,000 mm 19 W/m 14,1 C 15,6 C 0,0 km/h (0 Bft) 97 %
18.09.2016 19:10 15,6 C 15,6 C 15,6 C 91 % 1011,7 hPa 0,0 l/m 0,0 km/h (0 Bft) N-NW 340 0 min 0,025 mm 11 W/m 14,1 C 15,6 C 0,0 km/h (0 Bft) 98 %
18.09.2016 19:20 15,5 C 15,5 C 15,6 C 91 % 1011,8 hPa 0,0 l/m 0,0 km/h (0 Bft) N-NW 340 0 min 0,001 mm 11 W/m 14,0 C 15,5 C 0,0 km/h (0 Bft) 97 %
18.09.2016 19:30 15,4 C 15,4 C 15,5 C 91 % 1011,9 hPa 0,0 l/m 0,0 km/h (0 Bft) N-NW 340 0 min 0,000 mm 5 W/m 13,9 C 15,4 C 0,0 km/h (0 Bft) 98 %
18.09.2016 19:40 15,4 C 15,4 C 15,4 C 91 % 1012,0 hPa 0,0 l/m 0,0 km/h (0 Bft) N-NW 340 0 min 0,000 mm 0 W/m 13,9 C 15,4 C 0,0 km/h (0 Bft) 98 %
18.09.2016 19:50 15,3 C 15,3 C 15,4 C 91 % 1012,2 hPa 0,0 l/m 0,0 km/h (0 Bft) N-NW 340 0 min 0,000 mm 0 W/m 13,8 C 15,3 C 1,6 km/h (1 Bft) 97 %
18.09.2016 20:00 15,1 C 15,1 C 15,3 C 91 % 1012,4 hPa 0,0 l/m 0,0 km/h (0 Bft) N-NW 340 0 min 0,000 mm 0 W/m 13,6 C 15,1 C 0,0 km/h (0 Bft) 89 %
18.09.2016 20:10 15,1 C 15,1 C 15,1 C 91 % 1012,4 hPa 0,0 l/m 0,0 km/h (0 Bft) N-NW 339 0 min 0,000 mm 0 W/m 13,6 C 15,1 C 0,0 km/h (0 Bft) 97 %
18.09.2016 20:20 15,1 C 15,1 C 15,1 C 91 % 1012,5 hPa 0,0 l/m 0,0 km/h (0 Bft) N-NW 339 0 min 0,000 mm 0 W/m 13,6 C 15,1 C 0,0 km/h (0 Bft) 98 %
18.09.2016 20:30 14,9 C 14,9 C 15,1 C 91 % 1012,6 hPa 0,0 l/m 0,0 km/h (0 Bft) N-NW 339 0 min 0,000 mm 0 W/m 13,4 C 14,9 C 0,0 km/h (0 Bft) 97 %
18.09.2016 20:40 14,8 C 14,8 C 14,9 C 91 % 1012,7 hPa 0,0 l/m 0,0 km/h (0 Bft) N-NW 340 0 min 0,000 mm 0 W/m 13,3 C 14,8 C 0,0 km/h (0 Bft) 98 %
18.09.2016 20:50 14,8 C 14,8 C 14,8 C 91 % 1012,7 hPa 0,0 l/m 0,0 km/h (0 Bft) N-NW 340 0 min 0,000 mm 0 W/m 13,3 C 14,8 C 0,0 km/h (0 Bft) 97 %
18.09.2016 21:00 14,7 C 14,7 C 14,8 C 91 % 1012,8 hPa 0,0 l/m 0,0 km/h (0 Bft) N-NW 340 0 min 0,000 mm 0 W/m 13,2 C 14,7 C 0,0 km/h (0 Bft) 98 %
18.09.2016 21:10 14,6 C 14,6 C 14,7 C 91 % 1012,9 hPa 0,0 l/m 0,0 km/h (0 Bft) N 0 0 min 0,000 mm 0 W/m 13,1 C 14,6 C 0,0 km/h (0 Bft) 100 %
18.09.2016 21:20 14,4 C 14,4 C 14,6 C 91 % 1013,0 hPa 0,0 l/m 0,0 km/h (0 Bft) N-NW 337 0 min 0,000 mm 0 W/m 12,9 C 14,4 C 1,6 km/h (1 Bft) 100 %
18.09.2016 21:30 14,3 C 14,2 C 14,4 C 91 % 1013,0 hPa 0,0 l/m 0,0 km/h (0 Bft) N-NW 337 0 min 0,000 mm 0 W/m 12,8 C 14,3 C 1,6 km/h (1 Bft) 100 %
18.09.2016 21:40 14,1 C 14,1 C 14,2 C 91 % 1013,0 hPa 0,0 l/m 0,0 km/h (0 Bft) N 0 0 min 0,000 mm 0 W/m 12,7 C 14,1 C 0,0 km/h (0 Bft) 99 %
18.09.2016 21:50 13,8 C 13,8 C 14,1 C 91 % 1013,1 hPa 0,0 l/m 0,0 km/h (0 Bft) N 0 0 min 0,000 mm 0 W/m 12,4 C 13,8 C 0,0 km/h (0 Bft) 99 %
18.09.2016 22:00 13,6 C 13,6 C 13,8 C 91 % 1013,2 hPa 0,0 l/m 0,0 km/h (0 Bft) N 0 0 min 0,000 mm 0 W/m 12,2 C 13,6 C 0,0 km/h (0 Bft) 100 %
18.09.2016 22:10 13,4 C 13,4 C 13,6 C 91 % 1013,2 hPa 0,0 l/m 0,0 km/h (0 Bft) N 0 0 min 0,000 mm 0 W/m 12,0 C 13,4 C 0,0 km/h (0 Bft) 100 %
18.09.2016 22:20 13,3 C 13,3 C 13,4 C 91 % 1013,2 hPa 0,0 l/m 0,0 km/h (0 Bft) N 0 0 min 0,000 mm 0 W/m 11,9 C 13,3 C 0,0 km/h (0 Bft) 100 %
18.09.2016 22:30 13,2 C 13,2 C 13,3 C 91 % 1013,1 hPa 0,0 l/m 0,0 km/h (0 Bft) N 0 0 min 0,000 mm 0 W/m 11,8 C 13,2 C 0,0 km/h (0 Bft) 89 %
18.09.2016 22:40 13,1 C 13,1 C 13,2 C 91 % 1013,1 hPa 0,0 l/m 0,0 km/h (0 Bft) N 0 0 min 0,000 mm 0 W/m 11,7 C 13,1 C 0,0 km/h (0 Bft) 100 %
18.09.2016 22:50 12,9 C 12,9 C 13,1 C 91 % 1013,3 hPa 0,0 l/m 0,0 km/h (0 Bft) N 0 0 min 0,000 mm 0 W/m 11,5 C 12,9 C 0,0 km/h (0 Bft) 100 %
18.09.2016 23:00 12,8 C 12,8 C 12,9 C 91 % 1013,3 hPa 0,0 l/m 0,0 km/h (0 Bft) N 0 0 min 0,000 mm 0 W/m 11,4 C 12,8 C 0,0 km/h (0 Bft) 100 %
18.09.2016 23:10 12,6 C 12,6 C 12,8 C 91 % 1013,2 hPa 0,0 l/m 0,0 km/h (0 Bft) N 0 0 min 0,000 mm 0 W/m 11,2 C 12,6 C 0,0 km/h (0 Bft) 100 %
18.09.2016 23:20 12,4 C 12,4 C 12,6 C 91 % 1013,3 hPa 0,0 l/m 0,0 km/h (0 Bft) N 0 0 min 0,000 mm 0 W/m 11,0 C 12,4 C 0,0 km/h (0 Bft) 100 %
18.09.2016 23:30 12,2 C 12,2 C 12,4 C 94 % 1013,4 hPa 0,0 l/m 0,0 km/h (0 Bft) N 0 0 min 0,000 mm 0 W/m 11,3 C 12,2 C 0,0 km/h (0 Bft) 100 %
18.09.2016 23:40 12,1 C 12,1 C 12,2 C 91 % 1013,4 hPa 0,0 l/m 0,0 km/h (0 Bft) N 0 0 min 0,000 mm 0 W/m 10,7 C 12,1 C 0,0 km/h (0 Bft) 100 %
18.09.2016 23:50 11,9 C 11,9 C 12,1 C 91 % 1013,4 hPa 0,0 l/m 0,0 km/h (0 Bft) N 0 0 min 0,000 mm 0 W/m 10,5 C 11,9 C 0,0 km/h (0 Bft) 99 %
_ Min-Zeit 23:50 23:50 23:50 00:00 06:20 - 00:10 - - - - - 23:50 23:50 00:40 11:10
Minimum _ 11,9 C 11,9 C 12,1 C 90 % 1009,9 hPa - 0,0 km/h (0 Bft) - - - - - 10,5 C 11,9 C 0,0 km/h (0 Bft) 87 %
_ Max-Zeit 17:20 17:30 17:20 23:30 23:30 02:30 00:00 - - 11:20 12:00 11:30 17:20 17:20 10:30 13:20
Maximum _ 15,6 C 15,6 C 15,6 C 94 % 1013,4 hPa 0,4 l/m 1,6 km/h
NW (1 Bft)
- - 10 min 0,076 mm 221 W/m 14,1 C 15,6 C 16,1 km/h
W-NW (3 Bft)
100 %
Durchschnitt _ 14,7 C 14,7 C 14,7 C 91 % 1011,2 hPa #12,8 l/m 0,1 km/h (0 Bft) NW - #30 min. #0,432 mm 67 W/m 13,2 C 14,7 C 1,9 km/h (1 Bft) 98 %
PRIVATE WETTERSTATION BILLIGHEIM-ALLFELD - www.neckar-odenwald-wetter.de - Holger Sonntag